Weather History for Crestview, FL

Change the Weather History Date:

Sunday, January 13, 2013

  Actual Average Record
Temperature  
Mean Temperature 70 °F -  
Max Temperature 73 °F - - ()
Min Temperature 66 °F - - ()
Cooling Degree Days 4    
Growing Degree Days 20 (Base 50)    
Moisture  
Dew Point 67 °F    
Average Humidity 93    
Maximum Humidity 100    
Minimum Humidity 78    
Precipitation  
Precipitation 0.06 in - - ()
Sea Level Pressure  
Sea Level Pressure 30.04 in    
Wind  
Wind Speed 12 mph (SSE)    
Max Wind Speed 22 mph    
Max Gust Speed 31 mph    
Visibility 8 miles    
Events Rain    
T = Trace of Precipitation, MM = Missing Value Source: NWS Daily Summary

Daily Weather History Graph

Daily Weather History Graph

Search for Another Location

Airport:

Trip Planner

Search our weather history database for the weather conditions in past years. The results will help you decide how hot, cold, wet, or windy it might be!

Date:

Astronomy

Jan. 13, 2013 Rise Set
Actual Time 6:44 AM CST 5:05 PM CST
Civil Twilight 6:18 AM CST 5:31 PM CST
Nautical Twilight 5:48 AM CST 6:01 PM CST
Astronomical Twilight 5:19 AM CST 6:30 PM CST
Moon 7:53 AM CST (1/13) 7:30 PM CST (1/13)
Length of Visible Light 11h 13m
Length of Day
10h 21m
Waxing Crescent, 5% of the Moon is Illuminated
Jan 13
Waxing Crescent
Jan 18
First Quarter
Jan 26
Full
Feb 3
Last Quarter
Feb 10
New

Hourly Weather History & Observations

Time (CST) Temp. Dew Point Humidity Pressure Visibility Wind Dir Wind Speed Gust Speed Precip Events Conditions
12:47 AM 69.8 °F 66.2 °F 88% 30.03 in 10.0 mi South 12.7 mph - N/A   Overcast
12:55 AM 69.1 °F 66.7 °F 92% 30.04 in 10.0 mi SSE 13.8 mph - N/A   Overcast
1:55 AM 68.9 °F 66.9 °F 93% 30.03 in 10.0 mi South 11.5 mph - N/A   Overcast
2:55 AM 68.9 °F 67.1 °F 94% 30.01 in 10.0 mi SSE 11.5 mph - N/A   Overcast
3:01 AM 69.8 °F 68.0 °F 94% 30.01 in 10.0 mi SSE 10.4 mph - N/A   Overcast
3:43 AM 68.0 °F 68.0 °F 100% 29.99 in 10.0 mi SSE 11.5 mph - N/A   Overcast
3:55 AM 68.7 °F 67.6 °F 96% 29.99 in 10.0 mi SSE 10.4 mph - N/A   Overcast
4:55 AM 68.4 °F 67.6 °F 98% 30.01 in 10.0 mi SSE 9.2 mph - N/A   Overcast
5:06 AM 68.0 °F 68.0 °F 100% 30.01 in 10.0 mi South 10.4 mph - N/A   Mostly Cloudy
5:35 AM 68.0 °F 68.0 °F 100% 30.02 in 10.0 mi South 12.7 mph - N/A   Mostly Cloudy
5:55 AM 68.4 °F 67.8 °F 98% 30.02 in 10.0 mi South 10.4 mph - N/A   Overcast
6:14 AM 68.0 °F 68.0 °F 100% 30.03 in 10.0 mi SSE 10.4 mph - N/A   Overcast
6:31 AM 68.0 °F 66.2 °F 94% 30.04 in 10.0 mi SSE 10.4 mph - N/A   Overcast
6:41 AM 68.0 °F 66.2 °F 94% 30.04 in 2.5 mi SSE 10.4 mph 17.3 mph N/A   Overcast
6:42 AM 68.0 °F 66.2 °F 94% 30.04 in 2.5 mi SSE 10.4 mph 17.3 mph N/A   Overcast
6:43 AM 66.2 °F 66.2 °F 100% 30.04 in 2.0 mi SSE 11.5 mph 17.3 mph N/A   Overcast
6:44 AM 66.2 °F 66.2 °F 100% 30.04 in 1.8 mi SSE 10.4 mph 17.3 mph N/A   Overcast
6:48 AM 66.2 °F 66.2 °F 100% 30.04 in 1.2 mi SSE 10.4 mph - N/A   Overcast
6:54 AM 66.2 °F 66.2 °F 100% 30.04 in 1.0 mi SSE 9.2 mph - N/A   Mist
6:55 AM 66.9 °F 66.6 °F 99% 30.04 in 1.2 mi SSE 9.2 mph - N/A   Overcast
6:58 AM 66.2 °F 66.2 °F 100% 30.04 in 1.0 mi SSE 10.4 mph - N/A   Mist
7:03 AM 66.2 °F 66.2 °F 100% 30.04 in 1.2 mi SSE 10.4 mph - N/A   Overcast
7:07 AM 66.2 °F 66.2 °F 100% 30.04 in 1.5 mi SSE 10.4 mph - N/A   Overcast
7:12 AM 66.2 °F 66.2 °F 100% 30.04 in 2.0 mi SSE 10.4 mph - N/A   Overcast
7:14 AM 66.2 °F 66.2 °F 100% 30.04 in 2.5 mi SSE 11.5 mph - N/A   Overcast
7:15 AM 66.2 °F 66.2 °F 100% 30.04 in 2.5 mi SSE 10.4 mph - N/A   Overcast
7:16 AM 66.2 °F 66.2 °F 100% 30.04 in 3.0 mi SSE 11.5 mph - N/A   Overcast
7:39 AM 68.0 °F 68.0 °F 100% 30.05 in 10.0 mi SSE 13.8 mph 19.6 mph N/A   Overcast
7:50 AM 68.0 °F 68.0 °F 100% 30.04 in 10.0 mi SSE 12.7 mph - N/A   Overcast
7:55 AM 68.0 °F 67.8 °F 99% 30.05 in 10.0 mi SSE 13.8 mph - N/A   Overcast
8:23 AM 69.8 °F 68.0 °F 94% 30.05 in 10.0 mi SSE 11.5 mph - N/A   Overcast
8:38 AM 69.8 °F 68.0 °F 94% 30.06 in 10.0 mi SSE 17.3 mph 20.7 mph N/A   Overcast
8:50 AM 69.8 °F 68.0 °F 94% 30.06 in 10.0 mi SSE 13.8 mph 23.0 mph N/A   Overcast
8:55 AM 70.3 °F 67.6 °F 91% 30.06 in 10.0 mi SSE 17.3 mph 23.0 mph N/A   Overcast
9:13 AM 69.8 °F 68.0 °F 94% 30.06 in 10.0 mi SSE 15.0 mph 23.0 mph N/A   Overcast
9:55 AM 71.2 °F 67.3 °F 87% 30.05 in 10.0 mi SSE 19.6 mph 26.5 mph N/A   Overcast
10:25 AM 71.6 °F 66.2 °F 83% 30.04 in 10.0 mi SSE 18.4 mph 26.5 mph N/A   Mostly Cloudy
10:55 AM 72.7 °F 66.9 °F 82% 30.04 in 10.0 mi South 18.4 mph 28.8 mph N/A   Mostly Cloudy
11:18 AM 73.4 °F 66.2 °F 78% 30.04 in 10.0 mi South 17.3 mph 24.2 mph N/A   Mostly Cloudy
11:36 AM 73.4 °F 66.2 °F 78% 30.04 in 10.0 mi South 21.9 mph 26.5 mph N/A   Scattered Clouds
11:55 AM 73.8 °F 66.9 °F 79% 30.03 in 10.0 mi South 17.3 mph 31.1 mph N/A   Scattered Clouds
12:46 PM 73.4 °F 66.2 °F 78% 30.02 in 10.0 mi SSE 13.8 mph - N/A   Mostly Cloudy
12:55 PM 73.6 °F 66.9 °F 80% 30.03 in 10.0 mi South 17.3 mph - N/A   Mostly Cloudy
1:26 PM 73.4 °F 66.2 °F 78% 30.01 in 10.0 mi SSE 16.1 mph 25.3 mph N/A   Scattered Clouds
1:28 PM 73.4 °F 66.2 °F 78% 30.02 in 10.0 mi SSE 17.3 mph 25.3 mph N/A   Mostly Cloudy
1:36 PM 73.4 °F 66.2 °F 78% 30.03 in 10.0 mi South 16.1 mph 24.2 mph N/A   Scattered Clouds
1:55 PM 72.9 °F 66.7 °F 81% 30.02 in 10.0 mi South 16.1 mph 24.2 mph N/A   Scattered Clouds
2:07 PM 73.4 °F 66.2 °F 78% 30.02 in 10.0 mi South 18.4 mph 21.9 mph N/A   Mostly Cloudy
2:55 PM 72.5 °F 66.7 °F 82% 30.03 in 10.0 mi South 13.8 mph - N/A   Mostly Cloudy
3:22 PM 71.6 °F 66.2 °F 83% 30.02 in 10.0 mi SSE 12.7 mph 21.9 mph N/A   Scattered Clouds
3:30 PM 71.6 °F 66.2 °F 83% 30.03 in 10.0 mi SSE 12.7 mph 20.7 mph N/A   Mostly Cloudy
3:32 PM 71.6 °F 66.2 °F 83% 30.03 in 10.0 mi SSE 13.8 mph 20.7 mph N/A   Scattered Clouds
3:33 PM 71.6 °F 66.2 °F 83% 30.03 in 10.0 mi SSE 12.7 mph 20.7 mph N/A   Mostly Cloudy
3:46 PM 71.6 °F 66.2 °F 83% 30.03 in 10.0 mi SSE 15.0 mph - N/A   Scattered Clouds
3:51 PM 71.6 °F 66.2 °F 83% 30.03 in 10.0 mi SSE 12.7 mph - N/A   Mostly Cloudy
3:55 PM 71.2 °F 66.6 °F 85% 30.03 in 10.0 mi SSE 11.5 mph - N/A   Mostly Cloudy
4:28 PM 71.6 °F 66.2 °F 83% 30.03 in 10.0 mi SE 10.4 mph - N/A   Mostly Cloudy
4:39 PM 69.8 °F 66.2 °F 88% 30.03 in 10.0 mi SSE 12.7 mph - N/A   Mostly Cloudy
4:41 PM 69.8 °F 66.2 °F 88% 30.03 in 10.0 mi SSE 15.0 mph - N/A   Mostly Cloudy
4:55 PM 70.3 °F 66.7 °F 88% 30.04 in 10.0 mi South 11.5 mph - N/A   Overcast
5:48 PM 69.8 °F 66.2 °F 88% 30.05 in 8.0 mi SSE 10.4 mph - N/A Rain Light Rain
5:55 PM 69.6 °F 67.3 °F 92% 30.04 in 7.0 mi SSE 12.7 mph - 0.01 in Rain Light Rain
6:07 PM 69.8 °F 68.0 °F 94% 30.05 in 10.0 mi SSE 12.7 mph - N/A   Overcast
6:15 PM 69.8 °F 68.0 °F 94% 30.05 in 10.0 mi SSE 12.7 mph - N/A   Overcast
6:27 PM 69.8 °F 68.0 °F 94% 30.05 in 10.0 mi SSE 11.5 mph - N/A   Overcast
6:28 PM 69.8 °F 68.0 °F 94% 30.05 in 10.0 mi SSE 11.5 mph - N/A   Overcast
6:51 PM 69.8 °F 68.0 °F 94% 30.06 in 9.0 mi South 11.5 mph - N/A Rain Light Rain
6:55 PM 69.3 °F 68.2 °F 96% 30.05 in 5.0 mi SSE 10.4 mph - 0.02 in Rain Light Rain
7:09 PM 69.8 °F 68.0 °F 94% 30.06 in 10.0 mi South 15.0 mph - N/A   Light Drizzle
7:11 PM 69.8 °F 68.0 °F 94% 30.06 in 10.0 mi South 15.0 mph - N/A   Overcast
7:40 PM 69.8 °F 68.0 °F 94% 30.06 in 9.0 mi South 9.2 mph - N/A   Overcast
7:46 PM 69.8 °F 69.8 °F 100% 30.06 in 9.0 mi South 11.5 mph - N/A   Overcast
7:55 PM 69.3 °F 68.9 °F 99% 30.06 in 10.0 mi South 10.4 mph - 0.03 in   Mostly Cloudy
8:01 PM 69.8 °F 69.8 °F 100% 30.05 in 10.0 mi SSE 13.8 mph - N/A   Light Drizzle
8:07 PM 69.8 °F 68.0 °F 94% 30.04 in 10.0 mi South 12.7 mph - N/A   Light Drizzle
8:13 PM 69.8 °F 68.0 °F 94% 30.05 in 10.0 mi South 11.5 mph - N/A   Scattered Clouds
8:47 PM 69.8 °F 69.8 °F 100% 30.05 in 10.0 mi South 12.7 mph - N/A   Mostly Cloudy
8:55 PM 69.6 °F 69.1 °F 98% 30.05 in 10.0 mi South 11.5 mph - 0.00 in   Mostly Cloudy
9:02 PM 69.8 °F 69.8 °F 100% 30.05 in 9.0 mi SSE 13.8 mph - N/A   Overcast
9:11 PM 69.8 °F 69.8 °F 100% 30.05 in 8.0 mi South 11.5 mph - N/A   Overcast
9:25 PM 69.8 °F 69.8 °F 100% 30.06 in 7.0 mi South 12.7 mph - N/A   Overcast
9:55 PM 69.4 °F 69.3 °F 99% 30.06 in 5.0 mi SSE 13.8 mph - N/A   Overcast
10:19 PM 69.8 °F 69.8 °F 100% 30.06 in 8.0 mi South 10.4 mph - N/A   Overcast
10:55 PM 69.6 °F 69.3 °F 99% 30.06 in 8.0 mi South 11.5 mph - N/A   Overcast
11:05 PM 69.8 °F 69.8 °F 100% 30.06 in 8.0 mi South 9.2 mph - N/A   Overcast
11:55 PM 69.8 °F 69.4 °F 99% 30.05 in 6.0 mi SSE 13.8 mph 19.6 mph N/A   Overcast